Terminal Aerodrome Forecast
Issued by NWS Columbia, SC

Home | Current Version | Previous Version | Text Only | Print | Product List | Glossary On
Versions: 1 2 3 4 5 6 7 8 9 10 11 12 13 14 15 16 17 18 19 20 21 22 23 24 25 26 27 28 29 30 31 32 33 34 35 36 37 38 39 40 41 42 43
000
FTAK31 PAJN 282300
TAFAGS
TAF
PAGS 282326Z 0100/0124 21006KT P6SM SCT025 BKN040
      TEMPO 0100/0104 BKN025
     FM010400 VRB03KT P6SM BKN025 OVC040
     FM010900 VRB03KT 4SM -RASN BR BKN015 OVC030
     FM011400 34005KT P6SM BKN010 BKN150
     FM011700 35007KT P6SM FEW015
      AMD LTD TO CLD VIS AND WIND=

USA.gov is the U.S. government's official web portal to all federal, state and local government web resources and services.